Date String (YYYY-MM-DD hh:mm:ss) UTC,Instrument flags,Ambient pressure (hPa),Sample flow (lpm),Bypass flow (lpm),Sample temperature (°C),Ambient temperature (°C),ASC tube jacket temperature (°C),LED temperature (°C),Box temperature (°C),Sample RH (%),Span deviation,Mass concentration (μg/m³),Mass concentration (μg/m³),Mass concentration (μg/m³)
DateTimeUTC,F1_M11,P_M11,Q1_M11,Q2_M11,T1_M11,T2_M11,T3_M11,T4_M11,T5_M11,U1_M11,ZSPAN_M11,X0_M11,X2_M11,X1_M11
2023-05-26 06:00:00,,0829.4,4.99,0.00,29.0,27.3,00.0,37.5,30.6,23.5,0000.0,0008.48,0004.11,0003.52
2023-05-26 06:01:00,,0829.4,4.99,0.00,29.0,27.3,00.0,37.5,30.6,23.4,0002.1,0008.08,0004.07,0003.50
2023-05-26 06:02:00,,0829.4,5.00,0.00,29.0,27.3,00.0,37.4,30.6,23.4,0003.2,0007.79,0004.03,0003.47
2023-05-26 06:03:00,,0829.3,5.01,0.00,29.0,27.3,00.0,37.4,30.6,23.3,0002.4,0008.27,0004.01,0003.46
2023-05-26 06:04:00,,0829.3,5.01,0.00,29.0,27.2,00.0,37.4,30.6,23.0,0002.5,0008.19,0003.97,0003.44
2023-05-26 06:05:00,,0829.3,5.00,0.00,29.0,27.2,00.0,37.4,30.6,22.9,0001.0,0008.11,0003.93,0003.42
2023-05-26 06:06:00,,0829.3,5.00,0.00,29.0,27.2,00.0,37.4,30.6,22.7,0003.6,0008.28,0003.88,0003.40
2023-05-26 06:07:00,,0829.2,5.00,0.00,29.0,27.2,00.0,37.4,30.5,22.7,0003.4,0008.33,0003.82,0003.37
2023-05-26 06:08:00,,0829.3,5.00,0.00,29.0,27.2,00.0,37.4,30.5,22.7,0003.5,0007.95,0003.79,0003.36
2023-05-26 06:09:00,,0829.2,4.99,0.00,29.0,27.2,00.0,37.4,30.5,22.6,0003.6,0007.95,0003.76,0003.35
2023-05-26 06:10:00,,0829.2,5.00,0.00,29.0,27.2,00.0,37.4,30.5,22.5,0003.6,0008.30,0003.77,0003.34
2023-05-26 06:11:00,,0829.2,4.99,0.00,29.0,27.2,00.0,37.4,30.5,22.5,0003.6,0008.36,0003.75,0003.33
2023-05-26 06:12:00,,0829.2,5.00,0.00,29.0,27.2,00.0,37.4,30.5,22.2,0003.3,0008.39,0003.71,0003.31
2023-05-26 06:13:00,,0829.2,5.00,0.00,28.9,27.2,00.0,37.4,30.5,22.1,0002.7,0008.56,0003.74,0003.30
2023-05-26 06:14:00,,0829.2,5.01,0.00,28.9,27.2,00.0,37.4,30.5,22.0,0002.8,0008.19,0003.70,0003.27
2023-05-26 06:15:00,,0829.2,5.00,0.00,28.9,27.2,00.0,37.4,30.5,21.7,0003.0,0008.05,0003.67,0003.24
2023-05-26 06:16:00,,0829.2,5.00,0.00,28.9,27.2,00.0,37.4,30.5,21.7,0002.9,0008.08,0003.66,0003.21
2023-05-26 06:17:00,,0829.2,5.00,0.00,28.9,27.2,00.0,37.4,30.5,21.9,0002.3,0007.96,0003.65,0003.19
2023-05-26 06:18:00,,0829.3,4.99,0.00,28.9,27.2,00.0,37.4,30.5,21.8,0001.8,0008.29,0003.64,0003.18
2023-05-26 06:19:00,,0829.3,4.99,0.00,28.9,27.2,00.0,37.4,30.5,21.7,0000.9,0008.18,0003.63,0003.16
2023-05-26 06:20:00,,0829.2,5.01,0.00,28.9,27.2,00.0,37.3,30.5,21.8,0000.2,0008.67,0003.61,0003.15
2023-05-26 06:21:00,,0829.2,5.01,0.00,28.9,27.2,00.0,37.3,30.5,22.3,0000.0,0008.46,0003.57,0003.13
2023-05-26 06:22:00,,0829.2,5.01,0.00,28.9,27.2,00.0,37.3,30.5,22.1,0000.0,0008.21,0003.53,0003.11
2023-05-26 06:23:00,,0829.2,5.00,0.00,28.9,27.2,00.0,37.3,30.5,22.0,0000.0,0008.46,0003.51,0003.08
2023-05-26 06:24:00,,0829.2,4.98,0.00,28.9,27.2,00.0,37.3,30.5,21.9,0000.0,0008.74,0003.50,0003.05
2023-05-26 06:25:00,,0829.1,5.00,0.00,28.9,27.2,00.0,37.3,30.5,21.6,0000.0,0008.77,0003.51,0003.03
2023-05-26 06:26:00,,0829.1,5.01,0.00,28.9,27.2,00.0,37.3,30.5,21.6,0000.0,0008.83,0003.52,0003.03
2023-05-26 06:27:00,,0829.1,5.00,0.00,28.9,27.2,00.0,37.3,30.5,21.6,0000.0,0008.76,0003.51,0003.02
2023-05-26 06:28:00,,0829.2,5.00,0.00,28.9,27.2,00.0,37.3,30.5,21.6,0000.0,0008.67,0003.48,0003.02
2023-05-26 06:29:00,,0829.2,4.99,0.00,28.9,27.2,00.0,37.3,30.5,21.6,0000.0,0008.17,0003.48,0003.01
2023-05-26 06:30:00,,0829.2,4.99,0.00,28.9,27.2,00.0,37.3,30.5,21.6,0000.0,0007.97,0003.47,0002.98
2023-05-26 06:31:00,,0829.2,5.01,0.00,28.9,27.2,00.0,37.3,30.5,21.5,0000.0,0007.36,0003.45,0002.96
2023-05-26 06:32:00,,0829.2,5.02,0.00,28.9,27.2,00.0,37.3,30.5,21.4,0000.0,0007.25,0003.46,0002.95
2023-05-26 06:33:00,,0829.2,5.00,0.00,28.9,27.2,00.0,37.3,30.5,21.5,0000.0,0007.07,0003.46,0002.94
2023-05-26 06:34:00,,0829.2,4.98,0.00,28.9,27.2,00.0,37.3,30.5,21.5,0000.0,0006.47,0003.47,0002.94
2023-05-26 06:35:00,,0829.2,5.01,0.00,28.9,27.2,00.0,37.3,30.5,21.4,0000.0,0005.83,0003.46,0002.94
2023-05-26 06:36:00,,0829.2,5.01,0.00,28.9,27.2,00.0,37.3,30.5,21.4,0000.0,0005.56,0003.42,0002.93
2023-05-26 06:37:00,,0829.2,4.99,0.00,28.9,27.2,00.0,37.3,30.5,21.3,0000.0,0005.43,0003.40,0002.91
2023-05-26 06:38:00,,0829.2,4.99,0.00,28.9,27.1,00.0,37.3,30.5,21.4,0000.0,0005.36,0003.38,0002.91
2023-05-26 06:39:00,,0829.3,4.99,0.00,28.9,27.1,00.0,37.3,30.5,21.4,0000.0,0005.47,0003.39,0002.92
2023-05-26 06:40:00,,0829.2,5.00,0.00,28.9,27.1,00.0,37.3,30.5,21.4,0000.0,0005.58,0003.38,0002.92
2023-05-26 06:41:00,,0829.2,5.01,0.00,28.8,27.1,00.0,37.3,30.5,21.5,0000.0,0005.68,0003.36,0002.93
2023-05-26 06:42:00,,0829.3,5.00,0.00,28.8,27.2,00.0,37.2,30.4,21.5,0000.0,0005.60,0003.35,0002.92
2023-05-26 06:43:00,,0829.3,5.01,0.00,28.8,27.2,00.0,37.3,30.4,21.3,0000.0,0005.50,0003.30,0002.89
2023-05-26 06:44:00,,0829.3,5.00,0.00,28.8,27.1,00.0,37.2,30.4,21.3,0000.0,0005.52,0003.31,0002.88
2023-05-26 06:45:00,,0829.3,5.00,0.00,28.8,27.1,00.0,37.2,30.4,21.3,0000.0,0005.77,0003.32,0002.88
2023-05-26 06:46:00,,0829.4,5.00,0.00,28.8,27.1,00.0,37.2,30.4,21.4,0000.0,0006.09,0003.33,0002.88
2023-05-26 06:47:00,,0829.4,5.01,0.00,28.8,27.1,00.0,37.2,30.4,21.4,0000.0,0005.91,0003.33,0002.89
2023-05-26 06:48:00,,0829.4,5.00,0.00,28.8,27.2,00.0,37.2,30.4,21.4,0000.0,0005.95,0003.35,0002.90
2023-05-26 06:49:00,,0829.3,4.99,0.00,28.8,27.2,00.0,37.2,30.4,21.4,0000.0,0006.24,0003.40,0002.91
2023-05-26 06:50:00,,0829.4,5.00,0.00,28.8,27.2,00.0,37.2,30.5,21.4,0000.0,0006.25,0003.41,0002.90
2023-05-26 06:51:00,,0829.6,5.02,0.00,28.9,27.2,00.0,37.2,30.5,22.6,0000.0,0006.04,0003.40,0002.91
2023-05-26 06:52:00,,0829.6,5.01,0.00,28.9,27.2,00.0,37.2,30.5,22.9,0000.0,0005.98,0003.42,0002.93
2023-05-26 06:53:00,,0829.7,5.00,0.00,28.9,27.2,00.0,37.2,30.5,22.8,0000.0,0006.19,0003.45,0002.97
2023-05-26 06:54:00,,0829.6,5.00,0.00,28.9,27.2,00.0,37.2,30.5,23.6,0000.0,0006.42,0003.50,0003.02
2023-05-26 06:55:00,,0829.7,4.99,0.00,28.9,27.2,00.0,37.2,30.5,24.6,0000.0,0006.66,0003.57,0003.10
2023-05-26 06:56:00,,0829.6,5.00,0.00,28.9,27.3,00.0,37.2,30.5,25.1,0000.0,0007.34,0003.64,0003.14
2023-05-26 06:57:00,,0829.6,4.99,0.00,28.9,27.3,00.0,37.2,30.5,25.2,0000.0,0008.00,0003.72,0003.20
2023-05-26 06:58:00,,0829.5,5.00,0.00,28.9,27.3,00.0,37.3,30.5,25.3,0000.0,0008.35,0003.83,0003.25
2023-05-26 06:59:00,,0829.5,5.00,0.00,28.9,27.3,00.0,37.3,30.5,25.3,0000.0,0008.76,0003.97,0003.31
